{"data":{"norad_id":51444,"epoch":"2026-05-25T04:46:37.654752Z","epoch_age_seconds":57720,"freshness":"FRESH","line1":"1 51444U 22008A   26145.19904693  .00000335  00000+0  48582-4 0  9990","line2":"2 51444  97.8890 329.1302 0001409  88.1457 271.9917 14.82154248233180","mean_motion":14.82154248,"eccentricity":0.0001409,"inclination_deg":97.889,"raan_deg":329.1302,"arg_perigee_deg":88.1457,"mean_anomaly_deg":271.9917,"bstar":4.8582e-5,"rev_number":23318,"period_min":97.155879824459,"perigee_km":621.54606389036,"apogee_km":623.51885254369,"semimajor_km":7000.669458217,"source":"CELESTRAK","updated_at":"2026-05-25T13:38:12.834871Z"}}